GW3733 Weather Reports


time (UTC)temp
C
wind
direction
speed
KPH
gust
KPH
rain 1hr
cm
rain 24hr
cm
rain mn
cm
humidity
%
barometer
mb
20260510051818 5 352 0.0 0.0 0.00 0.00 0.00 99 1007.1
20260510051315 5 352 0.0 0.0 0.00 0.00 0.00 99 1007.1
20260510050812 5 352 0.0 0.0 0.00 0.00 0.00 99 1006.9
20260510050308 5 352 0.0 0.0 0.00 0.00 0.00 99 1006.8
20260510045805 5 352 0.0 0.0 0.00 0.00 0.00 99 1006.9
20260510045305 5 352 0.0 0.0 0.00 0.00 0.00 99 1006.9
20260510044759 5 352 0.0 0.0 0.00 0.00 0.00 99 1006.9
20260510044256 6 352 0.0 0.0 0.00 0.00 0.00 99 1006.8
20260510043751 6 352 0.0 0.0 0.00 0.00 0.00 99 1006.7
20260510043243 6 352 0.0 0.0 0.00 0.00 0.00 99 1006.9
20260510042740 6 352 0.0 0.0 0.00 0.00 0.00 99 1006.9
20260510042236 5 352 0.0 0.0 0.00 0.00 0.00 99 1006.8
20260510041733 6 352 0.0 0.0 0.00 0.00 0.00 99 1006.6
20260510041230 6 352 0.0 0.0 0.00 0.00 0.00 99 1006.8
20260510040727 6 352 0.0 0.0 0.00 0.00 0.00 99 1006.6
20260510040224 6 352 0.0 0.0 0.00 0.00 0.00 99 1006.9
20260510035719 6 352 0.0 0.0 0.00 0.00 0.00 99 1006.9
20260510035215 6 352 0.0 0.0 0.00 0.00 0.00 99 1006.7
20260510034711 6 352 0.0 0.0 0.00 0.00 0.00 99 1006.9
20260510034210 6 352 0.0 0.0 0.00 0.00 0.00 99 1007.0
20260510033705 6 352 0.0 0.0 0.00 0.00 0.00 99 1007.0
20260510033204 6 352 0.0 0.0 0.00 0.00 0.00 99 1006.9
20260510032659 6 352 0.0 0.0 0.00 0.00 0.00 99 1006.9
20260510032154 6 352 0.0 0.0 0.00 0.00 0.00 99 1006.9
20260510031649 6 352 0.0 0.0 0.00 0.00 0.00 99 1006.7
20260510031147 7 352 0.0 0.0 0.00 0.00 0.00 99 1006.8
20260510030647 7 352 0.0 0.0 0.00 0.00 0.00 99 1006.8
20260510030145 7 352 0.0 0.0 0.00 0.00 0.00 99 1007.0
20260510025642 7 352 0.0 0.0 0.00 0.00 0.00 98 1006.8
20260510025139 7 352 0.0 0.0 0.00 0.00 0.00 98 1006.9
20260510024636 7 352 0.0 0.0 0.00 0.00 0.00 98 1006.8
20260510024132 7 352 0.0 0.0 0.00 0.00 0.00 98 1006.9
20260510023628 8 352 0.0 0.0 0.00 0.00 0.00 98 1006.8
20260510023125 7 352 0.0 0.0 0.00 0.00 0.00 98 1006.6
20260510022619 7 352 0.0 0.0 0.00 0.00 0.00 98 1006.8
20260510022114 8 352 0.0 0.0 0.00 0.00 0.00 98 1006.5
20260510021610 8 352 0.0 0.0 0.00 0.00 0.00 98 1006.6
20260510021108 8 352 0.0 0.0 0.00 0.00 0.00 97 1006.5
20260510020601 8 352 0.0 0.0 0.00 0.00 0.00 97 1006.4
20260510020057 8 351 0.0 0.0 0.00 0.00 0.00 97 1006.3
20260510015553 8 351 0.0 0.0 0.00 0.00 0.00 97 1006.3
20260510015049 8 351 0.0 0.0 0.00 0.00 0.00 97 1006.2
20260510014546 8 351 0.0 0.0 0.00 0.00 0.00 97 1005.9
20260510014043 8 351 0.0 0.0 0.00 0.00 0.00 96 1006.1
20260510013538 9 351 0.0 0.0 0.00 0.00 0.00 97 1005.9
20260510013034 9 351 0.0 0.0 0.00 0.00 0.00 96 1005.9
20260510012528 9 351 0.0 0.0 0.00 0.00 0.00 96 1005.9
20260510012024 9 351 0.0 0.0 0.00 0.00 0.00 95 1005.6
20260510011519 10 351 0.0 0.0 0.00 0.00 0.00 95 1005.5
20260510011014 10 351 0.0 0.0 0.00 0.00 0.00 95 1005.4
20260510010512 10 354 0.0 0.0 0.00 0.00 0.00 94 1005.2
20260510010009 10 354 0.0 0.0 0.00 0.00 0.00 93 1005.4
20260510005504 10 354 0.0 0.0 0.00 0.00 0.00 93 1005.3
20260510005002 10 354 0.0 0.0 0.00 0.00 0.00 92 1005.2
20260510004459 11 354 0.0 0.0 0.00 0.00 0.00 92 1005.2
20260510003957 11 354 0.0 0.0 0.00 0.00 0.00 91 1005.1
20260510003454 11 354 0.0 0.0 0.00 0.00 0.00 90 1005.1
20260510002949 12 354 0.0 0.0 0.00 0.00 0.00 89 1004.8
20260510002445 12 353 0.0 0.0 0.00 0.00 0.00 89 1004.8
20260510001942 12 353 0.0 0.0 0.00 0.00 0.00 89 1004.8
20260510001439 12 353 0.0 0.0 0.00 0.00 0.00 88 1004.8
20260510000937 12 352 0.0 0.0 0.00 0.00 0.00 87 1004.5
20260510000433 13 353 0.0 0.0 0.00 0.00 0.00 86 1004.5
20260509235929 13 352 0.0 0.0 0.00 0.00 0.00 84 1004.5
20260509235426 14 352 0.0 0.0 0.00 0.00 0.00 82 1004.7
20260509234922 15 352 0.0 0.0 0.00 0.00 0.00 81 1004.4
20260509234419 15 352 0.0 0.0 0.00 0.00 0.00 80 1004.7
20260509233917 15 352 0.0 0.0 0.00 0.00 0.00 78 1004.8
20260509233415 16 352 0.0 0.0 0.00 0.00 0.00 78 1004.5
20260509232911 16 352 0.0 0.0 0.00 0.00 0.00 77 1004.4
20260509232409 17 352 0.0 0.0 0.00 0.00 0.00 75 1004.5
20260509231904 18 352 0.0 0.0 0.00 0.00 0.00 71 1004.7
20260509231401 18 350 0.0 0.0 0.00 0.00 0.00 61 1004.7
20260509230859 19 4 0.0 0.0 0.00 0.00 0.00 58 1004.5
20260509230356 19 354 0.0 0.0 0.00 0.00 0.00 53 1004.7
20260509225851 19 354 0.0 0.0 0.00 0.00 0.00 58 1004.5
20260509225348 20 336 0.0 0.0 0.00 0.00 0.00 56 1004.4
20260509224844 20 0 0.0 0.0 0.00 0.00 0.00 52 1004.8
20260509224340 20 346 0.0 1.6 0.00 0.00 0.00 51 1004.7
20260509223837 20 0 1.6 1.6 0.00 0.00 0.00 52 1004.7
20260509223334 20 345 0.0 0.0 0.00 0.00 0.00 50 1004.9
20260509222831 20 352 0.0 0.0 0.00 0.00 0.00 52 1004.7
20260509222326 20 333 1.6 1.6 0.00 0.00 0.00 50 1004.8
20260509221822 20 25 0.0 1.6 0.00 0.00 0.00 56 1004.5
20260509221320 20 305 1.6 1.6 0.00 0.00 0.00 57 1004.9
20260509220819 20 318 1.6 1.6 0.00 0.00 0.00 60 1004.7
20260509220316 20 19 0.0 1.6 0.00 0.00 0.00 60 1004.7
20260509215811 20 3 0.0 0.0 0.00 0.00 0.00 59 1004.9
20260509215308 20 351 0.0 1.6 0.00 0.00 0.00 60 1004.7
20260509214805 19 16 0.0 0.0 0.00 0.00 0.00 61 1004.7
20260509214302 19 303 4.8 4.8 0.00 0.00 0.00 63 1004.7
20260509213759 19 359 0.0 0.0 0.00 0.00 0.00 62 1004.7
20260509213255 20 354 1.6 1.6 0.00 0.00 0.00 62 1004.8
20260509212752 20 345 1.6 1.6 0.00 0.00 0.00 60 1004.5
20260509212250 19 346 0.0 1.6 0.00 0.00 0.00 62 1004.5
20260509211745 20 307 1.6 3.2 0.00 0.00 0.00 62 1004.5
20260509211242 20 355 1.6 1.6 0.00 0.00 0.00 58 1004.5
20260509210738 20 0 0.0 0.0 0.00 0.00 0.00 55 1004.4
20260509210237 20 351 1.6 1.6 0.00 0.00 0.00 55 1004.2
20260509205735 20 11 1.6 1.6 0.00 0.00 0.00 55 1004.3
20260509205230 20 11 1.6 3.2 0.00 0.00 0.00 56 1004.3
20260509204726 20 14 1.6 1.6 0.00 0.00 0.00 54 1004.4
20260509204223 20 8 0.0 0.0 0.00 0.00 0.00 57 1004.2
20260509203719 20 9 0.0 0.0 0.00 0.00 0.00 54 1004.1
20260509203217 20 8 0.0 0.0 0.00 0.00 0.00 55 1004.0
20260509202712 20 10 0.0 0.0 0.00 0.00 0.00 55 1004.1
20260509202208 20 355 1.6 1.6 0.00 0.00 0.00 56 1004.4
20260509201703 20 358 0.0 0.0 0.00 0.00 0.00 55 1004.4
20260509201200 20 26 0.0 1.6 0.00 0.00 0.00 50 1004.5
20260509200656 20 358 0.0 0.0 0.00 0.00 0.00 50 1004.5
20260509200151 20 78 0.0 1.6 0.00 0.00 0.00 51 1004.3
20260509195647 20 357 0.0 0.0 0.00 0.00 0.00 50 1004.4
20260509195143 20 6 0.0 1.6 0.00 0.00 0.00 51 1004.2
20260509194637 20 9 0.0 1.6 0.00 0.00 0.00 50 1004.2
20260509194134 20 1 0.0 0.0 0.00 0.00 0.00 52 1004.3
20260509193630 20 346 0.0 1.6 0.00 0.00 0.00 53 1004.3
20260509193126 20 1 0.0 0.0 0.00 0.00 0.00 51 1004.4
20260509192623 20 356 0.0 0.0 0.00 0.00 0.00 52 1004.7
20260509192118 20 316 3.2 3.2 0.00 0.00 0.00 52 1004.5
20260509191612 21 26 0.0 0.0 0.00 0.00 0.00 52 1004.5
20260509191109 20 314 3.2 3.2 0.00 0.00 0.00 53 1004.4
20260509190606 20 310 1.6 1.6 0.00 0.00 0.00 54 1004.8
20260509190103 20 76 1.6 3.2 0.00 0.00 0.00 53 1004.5
20260509185601 20 307 3.2 4.8 0.00 0.00 0.00 55 1004.4
20260509185056 20 5 4.8 6.4 0.00 0.00 0.00 54 1004.4
20260509184555 20 359 1.6 3.2 0.00 0.00 0.00 59 1004.7
20260509184051 20 347 1.6 3.2 0.00 0.00 0.00 57 1004.4
20260509183547 20 350 1.6 3.2 0.00 0.00 0.00 55 1004.5
20260509183043 20 330 3.2 4.8 0.00 0.00 0.00 55 1004.5
20260509182539 18 314 3.2 4.8 0.00 0.00 0.00 59 1005.1
20260509182036 19 293 1.6 3.2 0.00 0.00 0.00 61 1005.0
20260509181534 18 2 1.6 1.6 0.00 0.00 0.00 64 1004.9
20260509181031 18 347 3.2 4.8 0.00 0.00 0.00 65 1005.2
20260509180527 18 347 1.6 3.2 0.00 0.00 0.00 62 1005.2
20260509180025 18 351 3.2 4.8 0.00 0.00 0.00 62 1005.3
20260509175520 17 352 0.0 1.6 0.00 0.00 0.00 65 1005.5
20260509175017 17 345 0.0 1.6 0.00 0.00 0.00 64 1005.5
20260509174514 17 351 6.4 9.7 0.00 0.00 0.00 63 1005.4
20260509174014 17 6 0.0 1.6 0.00 0.00 0.00 67 1005.5
20260509173508 17 351 1.6 1.6 0.00 0.00 0.00 65 1005.6
20260509173005 17 313 3.2 3.2 0.00 0.00 0.00 67 1005.5
20260509172502 17 2 0.0 0.0 0.00 0.00 0.00 65 1005.5
20260509171957 16 356 0.0 0.0 0.00 0.00 0.00 67 1005.5
20260509171454 16 53 3.2 4.8 0.00 0.00 0.00 65 1005.9
20260509170950 16 7 1.6 3.2 0.00 0.00 0.00 67 1006.1
20260509170446 16 160 0.0 0.0 0.00 0.00 0.00 67 1006.2
20260509165942 16 15 0.0 1.6 0.00 0.00 0.00 65 1006.1
20260509165441 16 344 0.0 0.0 0.00 0.00 0.00 65 1006.3
20260509164937 16 66 1.6 3.2 0.00 0.00 0.00 64 1006.2
20260509164433 16 14 0.0 0.0 0.00 0.00 0.00 65 1006.2
20260509163929 16 348 3.2 3.2 0.00 0.00 0.00 68 1006.3
20260509163427 16 28 0.0 1.6 0.00 0.00 0.00 67 1006.5
20260509162925 15 20 0.0 0.0 0.00 0.00 0.00 67 1006.6
20260509162425 15 39 3.2 3.2 0.00 0.00 0.00 67 1006.5
20260509161920 16 14 1.6 1.6 0.00 0.00 0.00 66 1006.6
20260509161416 15 354 1.6 1.6 0.00 0.00 0.00 71 1006.7
20260509160912 15 351 0.0 0.0 0.00 0.00 0.00 73 1006.4
20260509160408 15 353 0.0 0.0 0.00 0.00 0.00 70 1006.6
20260509155904 15 337 3.2 3.2 0.00 0.00 0.00 70 1006.5
20260509155401 15 344 1.6 1.6 0.00 0.00 0.00 71 1006.5
20260509154857 15 345 0.0 0.0 0.00 0.00 0.00 69 1006.6
20260509154354 15 8 1.6 3.2 0.00 0.00 0.00 72 1006.5
20260509153850 15 355 0.0 0.0 0.00 0.00 0.00 72 1006.7
20260509153348 15 350 1.6 1.6 0.00 0.00 0.00 71 1006.8
20260509152844 15 354 0.0 0.0 0.00 0.00 0.00 74 1006.5
20260509152340 15 357 1.6 1.6 0.00 0.00 0.00 71 1006.7
20260509151838 16 356 1.6 3.2 0.00 0.00 0.00 70 1006.4
20260509151333 16 76 3.2 3.2 0.00 0.00 0.00 69 1006.4
20260509150832 15 353 1.6 3.2 0.00 0.00 0.00 71 1006.6
20260509150330 15 350 1.6 1.6 0.00 0.00 0.00 72 1006.7
20260509145827 15 41 1.6 1.6 0.00 0.00 0.00 74 1006.7
20260509145321 15 321 1.6 1.6 0.00 0.00 0.00 72 1006.7
20260509144818 15 17 3.2 3.2 0.00 0.00 0.00 76 1006.5
20260509144315 15 318 3.2 3.2 0.00 0.00 0.00 75 1006.5
20260509143812 15 356 0.0 0.0 0.00 0.00 0.00 76 1006.6
20260509143310 15 19 0.0 0.0 0.00 0.00 0.00 74 1006.6
20260509142806 15 359 0.0 0.0 0.00 0.00 0.00 76 1006.7
20260509142306 14 5 0.0 0.0 0.00 0.00 0.00 74 1006.7
20260509141757 13 40 1.6 1.6 0.00 0.00 0.00 76 1006.7
20260509141255 13 18 1.6 1.6 0.00 0.00 0.00 76 1006.9
20260509140751 13 316 1.6 1.6 0.00 0.00 0.00 77 1006.9
20260509140248 13 6 0.0 0.0 0.00 0.00 0.00 79 1007.0
20260509135746 13 347 1.6 3.2 0.00 0.00 0.00 78 1006.9
20260509135244 13 357 0.0 0.0 0.00 0.00 0.00 78 1006.8
20260509134740 13 352 0.0 0.0 0.00 0.00 0.00 79 1006.7
20260509134238 12 352 0.0 0.0 0.00 0.00 0.00 82 1007.0
20260509133735 12 352 0.0 0.0 0.00 0.00 0.00 84 1007.0
20260509133231 12 354 0.0 0.0 0.00 0.00 0.00 82 1006.7
20260509132730 12 354 0.0 0.0 0.00 0.00 0.00 82 1006.7
20260509132228 12 2 0.0 0.0 0.00 0.00 0.00 82 1006.4
20260509131725 12 352 0.0 0.0 0.00 0.00 0.00 84 1006.7
20260509131221 11 352 0.0 0.0 0.00 0.00 0.00 89 1006.7
20260509130717 11 0 0.0 0.0 0.00 0.00 0.00 90 1006.6
20260509130213 11 31 1.6 1.6 0.00 0.00 0.00 87 1006.5
20260509125710 11 349 0.0 0.0 0.00 0.00 0.00 89 1006.3
20260509125207 11 18 0.0 0.0 0.00 0.00 0.00 90 1006.6
20260509124703 11 2 0.0 0.0 0.00 0.00 0.00 89 1006.9
20260509124200 11 4 0.0 0.0 0.00 0.00 0.00 88 1007.0
20260509123659 12 352 0.0 0.0 0.00 0.00 0.00 87 1007.0
20260509123155 11 331 1.6 1.6 0.00 0.00 0.00 87 1007.1
20260509122650 11 8 0.0 0.0 0.00 0.00 0.00 85 1006.8
20260509122142 11 2 0.0 0.0 0.00 0.00 0.00 85 1006.9
20260509121638 11 3 0.0 0.0 0.00 0.00 0.00 86 1006.9
20260509121137 11 2 0.0 0.0 0.00 0.00 0.00 85 1006.9
20260509120634 11 1 0.0 0.0 0.00 0.00 0.00 88 1007.1
20260509120132 11 2 0.0 0.0 0.00 0.00 0.00 88 1007.1
20260509115629 11 4 0.0 0.0 0.00 0.00 0.00 89 1006.9
20260509115127 11 4 0.0 0.0 0.00 0.00 0.00 89 1006.9
20260509114625 10 4 0.0 0.0 0.00 0.00 0.00 89 1006.5
20260509114124 10 4 0.0 0.0 0.00 0.00 0.00 89 1006.9
20260509113621 10 4 0.0 0.0 0.00 0.00 0.00 89 1006.7
20260509113119 10 5 0.0 0.0 0.00 0.00 0.00 88 1006.5
20260509112615 10 4 0.0 0.0 0.00 0.00 0.00 88 1006.7
20260509112112 10 5 0.0 0.0 0.00 0.00 0.00 87 1006.4
20260509111609 10 4 0.0 0.0 0.00 0.00 0.00 88 1006.7
20260509111106 10 5 0.0 0.0 0.00 0.00 0.00 87 1006.8
20260509110603 10 4 0.0 0.0 0.00 0.00 0.00 89 1006.6
20260509110100 10 0 0.0 0.0 0.00 0.00 0.00 88 1006.4
20260509105558 10 4 0.0 0.0 0.00 0.00 0.00 87 1006.5
20260509105055 10 359 0.0 0.0 0.00 0.00 0.00 87 1006.6
20260509104552 10 352 0.0 0.0 0.00 0.00 0.00 89 1006.4
20260509104049 10 344 0.0 0.0 0.00 0.00 0.00 89 1006.5
20260509103547 10 11 0.0 0.0 0.00 0.00 0.00 88 1006.3
20260509103045 10 11 0.0 0.0 0.00 0.00 0.00 88 1006.3
20260509102542 10 11 0.0 0.0 0.00 0.00 0.00 88 1006.3
20260509102039 10 12 0.0 0.0 0.00 0.00 0.00 86 1006.1
20260509101535 10 12 0.0 0.0 0.00 0.00 0.00 86 1006.0
20260509101032 10 13 0.0 1.6 0.00 0.00 0.00 85 1006.0
20260509100529 10 12 0.0 0.0 0.00 0.00 0.00 85 1006.2
20260509100027 10 1 0.0 0.0 0.00 0.00 0.00 85 1006.0
20260509095523 10 1 0.0 0.0 0.00 0.00 0.00 86 1005.9
20260509095021 10 2 0.0 0.0 0.00 0.00 0.00 85 1005.8
20260509094516 10 359 0.0 1.6 0.00 0.00 0.00 90 1005.9
20260509094014 10 0 0.0 0.0 0.00 0.00 0.00 90 1005.8
20260509093512 10 4 0.0 0.0 0.00 0.00 0.00 90 1005.7
20260509093010 10 4 0.0 0.0 0.00 0.00 0.00 91 1005.8
20260509092507 10 3 0.0 0.0 0.00 0.00 0.00 91 1005.6
20260509092006 10 4 0.0 0.0 0.00 0.00 0.00 91 1005.8
20260509091503 10 4 0.0 0.0 0.00 0.00 0.00 91 1006.0
20260509090959 10 4 0.0 0.0 0.00 0.00 0.00 91 1005.8
20260509090456 10 4 0.0 0.0 0.00 0.00 0.00 92 1005.9
20260509085954 10 4 0.0 0.0 0.00 0.00 0.00 92 1005.9
20260509085451 10 4 0.0 0.0 0.00 0.00 0.00 91 1005.9
20260509084947 10 4 0.0 0.0 0.00 0.00 0.00 93 1006.1
20260509084444 10 4 0.0 0.0 0.00 0.00 0.00 92 1005.8
20260509083941 10 4 0.0 0.0 0.00 0.00 0.00 91 1005.7
20260509083439 9 4 0.0 0.0 0.00 0.00 0.00 90 1005.8
20260509082935 9 4 0.0 0.0 0.00 0.00 0.00 92 1006.0
20260509082432 9 4 0.0 0.0 0.00 0.00 0.00 92 1006.0
20260509081929 9 4 0.0 0.0 0.00 0.00 0.00 92 1005.9
20260509081427 9 4 0.0 0.0 0.00 0.00 0.00 92 1006.0
20260509080924 9 4 0.0 0.0 0.00 0.00 0.00 92 1006.1
20260509080422 9 4 0.0 0.0 0.00 0.00 0.00 91 1005.9
20260509075920 9 4 0.0 0.0 0.00 0.00 0.00 91 1006.2
20260509075416 8 4 0.0 0.0 0.00 0.00 0.00 91 1006.0
20260509074914 8 4 0.0 0.0 0.00 0.00 0.00 91 1006.3
20260509074412 8 4 0.0 0.0 0.00 0.00 0.00 91 1006.3
20260509073908 8 4 0.0 0.0 0.00 0.00 0.00 92 1006.2
20260509073404 8 4 0.0 0.0 0.00 0.00 0.00 92 1006.3
20260509072901 8 4 0.0 0.0 0.00 0.00 0.00 92 1006.2
20260509072357 8 4 0.0 0.0 0.00 0.00 0.00 93 1006.2
20260509071854 8 4 0.0 0.0 0.00 0.00 0.00 92 1006.3
20260509071351 8 4 0.0 0.0 0.00 0.00 0.00 92 1006.4
20260509070848 8 4 0.0 0.0 0.00 0.00 0.00 92 1006.5
20260509070345 8 3 0.0 0.0 0.00 0.00 0.00 92 1006.4
20260509065841 8 3 0.0 0.0 0.00 0.00 0.00 93 1006.4
20260509065337 7 3 0.0 0.0 0.00 0.00 0.00 93 1006.5
20260509064833 7 3 0.0 0.0 0.00 0.00 0.00 93 1006.3
20260509064331 7 3 0.0 0.0 0.00 0.00 0.00 93 1006.6
20260509063829 7 3 0.0 0.0 0.00 0.00 0.00 93 1006.5
20260509063324 8 3 0.0 0.0 0.00 0.00 0.00 93 1006.4
20260509062822 7 3 0.0 0.0 0.00 0.00 0.00 93 1006.6
20260509062319 7 3 0.0 0.0 0.00 0.00 0.00 93 1006.5
20260509061816 7 3 0.0 0.0 0.00 0.00 0.00 92 1006.7
20260509061314 7 3 0.0 0.0 0.00 0.00 0.00 92 1006.9
20260509060811 7 3 0.0 0.0 0.00 0.00 0.00 92 1006.8
20260509060308 8 4 0.0 0.0 0.00 0.00 0.00 91 1006.8
20260509055803 8 4 0.0 0.0 0.00 0.00 0.00 91 1006.9
20260509055259 8 4 0.0 0.0 0.00 0.00 0.00 91 1006.9
20260509054756 8 4 0.0 0.0 0.00 0.00 0.00 90 1007.0
20260509054252 8 4 0.0 0.0 0.00 0.00 0.00 90 1007.0
20260509053751 8 4 0.0 0.0 0.00 0.00 0.00 90 1007.0
20260509053248 8 4 0.0 0.0 0.00 0.00 0.00 89 1007.0
20260509052746 8 4 0.0 0.0 0.00 0.00 0.00 88 1007.1